User: anonymous   Login
Location: NJAA Observatory
(40.6819°N, 74.8979°W)
Time: 14:43:46
(UTC-05:00)
Language:

Cosmos 2237 Rocket - Orbit

View from above orbital plane
View from above orbital plane
View from above satellite
View from above satellite

Ground track
Ground track

The orbit data is extracted from the following two-line orbital elements,

1 22566U 93016B   17055.16517265  .00000070  00000-0  60593-4 0  9995
2 22566  71.0075 304.1671 0012109 298.9005  61.0902 14.14940324235281
Epoch (UTC): 24 February 2017 03:57:50
Eccentricity: 0.0012109
inclination: 71.0075°
perigee height: 834 km
apogee height: 851 km
right ascension of ascending node: 304.1671°
argument of perigee: 298.9005°
revolutions per day: 14.14940324
mean anomaly at epoch: 61.0902°
orbit number at epoch: 23528

The dashed part of the orbit path shows where the satellite is in the earth's shadow,  

DLR